Location: Felsheim
(48.7267°N, 10.7386°E)
Time: 09:30:14
(UTC+00:00)

Cosmos 540 Rocket - Pass Details

Date: 09 April 2020
Orbit: 741 x 753 km, 74.1° (Epoch: 22 May)

Event Time Altitude Azimuth Distance (km) Brightness Sun altitude
Rises 19:45:30 0° 342° (NNW) 3,215 7.6 -16.7°
Reaches altitude 10° 19:48:07 10° 352° (N) 2,285 6.5 -17.0°
Maximum altitude 19:52:46 33° 56° (NE) 1,261 4.4 -17.6°
Enters shadow 19:54:28 26° 91° (E) 1,439 4.5 -17.9°
